Date String (YYYY-MM-DD hh:mm:ss) UTC,Instrument flags,absolute air pressure of the measurement (hPa),sample flow rate (lpm),inlet stack bypass flow (lpm),air temperature of the measurement (°C),ambient temperature measured by the external sensor (°C),aerosol sample conditioner tube jacket temperature (°C),OPC LED temperature (°C),internal box temperature (°C),relative humidity of the measurement (%),span deviation,mass concentration of particles derived from Lorenz-Mie calculation of OPC scattering (μg/m³),mass concentration of particles derived from Lorenz-Mie calculation of OPC scattering (μg/m³),mass concentration of particles derived from Lorenz-Mie calculation of OPC scattering (μg/m³)
DateTimeUTC,F1_M11,P_M11,Q1_M11,Q2_M11,T1_M11,T2_M11,T3_M11,T4_M11,T5_M11,U1_M11,ZSPAN_M11,X0_M11,X2_M11,X1_M11
2023-10-10 05:00:00,SystemResetWarning,0825.7,5.00,000.00,028.8,025.3,000.0,037.2,030.3,10.9,0000.0,0010.70,0004.13,0003.47
2023-10-10 05:01:00,SystemResetWarning,0825.6,5.01,000.00,028.7,024.3,000.0,037.1,030.2,11.0,0000.0,0010.82,0004.14,0003.48
2023-10-10 05:02:00,SystemResetWarning,0825.6,5.01,000.00,028.6,024.4,000.0,037.0,029.9,11.1,0000.0,0011.05,0004.13,0003.49
2023-10-10 05:03:00,SystemResetWarning,0825.6,5.00,000.00,028.5,024.7,000.0,037.0,029.8,11.1,0000.0,0011.37,0004.13,0003.49
2023-10-10 05:04:00,SystemResetWarning,0825.6,4.99,000.00,028.4,025.0,000.0,037.0,029.9,11.2,0000.0,0011.49,0004.17,0003.49
2023-10-10 05:05:00,SystemResetWarning,0825.7,5.00,000.00,028.4,025.4,000.0,037.0,029.9,11.3,0000.0,0011.63,0004.16,0003.49
2023-10-10 05:06:00,SystemResetWarning,0825.7,5.00,000.00,028.3,025.7,000.0,037.0,029.9,11.3,0000.0,0011.65,0004.15,0003.49
2023-10-10 05:07:00,SystemResetWarning,0825.7,4.99,000.00,028.3,026.0,000.0,037.0,029.9,11.4,0000.0,0012.33,0004.20,0003.50
2023-10-10 05:08:00,SystemResetWarning,0825.7,4.99,000.00,028.3,026.2,000.0,037.0,030.0,11.4,0000.0,0012.83,0004.20,0003.49
2023-10-10 05:09:00,SystemResetWarning,0825.7,5.00,000.00,028.3,026.4,000.0,036.9,030.0,11.4,0000.0,0013.06,0004.21,0003.51
2023-10-10 05:10:00,SystemResetWarning,0825.7,5.00,000.00,028.3,026.5,000.0,036.9,030.0,11.4,0000.0,0012.83,0004.23,0003.50
2023-10-10 05:11:00,SystemResetWarning,0825.8,5.00,000.00,028.4,026.7,000.0,036.9,030.1,11.4,0000.0,0012.27,0004.25,0003.51
2023-10-10 05:12:00,SystemResetWarning,0825.8,5.01,000.00,028.4,026.8,000.0,036.9,030.1,11.3,0000.0,0011.97,0004.23,0003.51
2023-10-10 05:13:00,SystemResetWarning,0825.7,5.01,000.00,028.4,026.9,000.0,036.9,030.1,11.3,0000.0,0012.22,0004.23,0003.50
2023-10-10 05:14:00,SystemResetWarning,0825.8,5.01,000.00,028.4,026.9,000.0,036.9,030.1,11.3,0000.0,0012.07,0004.24,0003.50
2023-10-10 05:15:00,SystemResetWarning,0825.7,5.00,000.00,028.4,027.0,000.0,036.9,030.1,11.3,0000.0,0011.43,0004.23,0003.50
2023-10-10 05:16:00,SystemResetWarning,0825.7,4.98,000.00,028.5,027.1,000.0,036.9,030.2,11.3,0000.0,0011.47,0004.20,0003.50
2023-10-10 05:17:00,SystemResetWarning,0825.7,5.00,000.00,028.5,027.1,000.0,037.0,030.2,11.3,0000.0,0011.97,0004.23,0003.50
2023-10-10 05:18:00,SystemResetWarning,0825.7,5.00,000.00,028.5,027.1,000.0,037.0,030.2,11.3,0000.0,0012.10,0004.22,0003.50
2023-10-10 05:19:00,SystemResetWarning,0825.7,5.01,000.00,028.5,027.2,000.0,037.0,030.2,11.3,0000.0,0011.83,0004.20,0003.50
2023-10-10 05:20:00,SystemResetWarning,0825.7,5.00,000.00,028.5,027.2,000.0,037.0,030.2,11.2,0000.0,0012.13,0004.22,0003.49
2023-10-10 05:21:00,SystemResetWarning,0825.6,5.00,000.00,028.6,027.2,000.0,037.0,030.2,11.2,0000.0,0011.93,0004.21,0003.49
2023-10-10 05:22:00,SystemResetWarning,0825.6,5.00,000.00,028.6,027.2,000.0,037.0,030.3,11.1,0000.0,0011.74,0004.13,0003.48
2023-10-10 05:23:00,SystemResetWarning,0825.6,5.00,000.00,028.6,027.3,000.0,037.0,030.3,11.1,0000.0,0011.76,0004.13,0003.47
2023-10-10 05:24:00,SystemResetWarning,0825.6,5.00,000.00,028.6,027.3,000.0,037.0,030.3,11.1,0000.0,0011.43,0004.14,0003.46
2023-10-10 05:25:00,SystemResetWarning,0825.6,5.00,000.00,028.6,027.3,000.0,037.0,030.3,11.1,0000.0,0011.10,0004.14,0003.47
2023-10-10 05:26:00,SystemResetWarning,0825.6,5.00,000.00,028.7,027.3,000.0,037.1,030.3,11.0,0000.0,0011.46,0004.15,0003.46
2023-10-10 05:27:00,SystemResetWarning,0825.6,5.00,000.00,028.7,027.4,000.0,037.1,030.3,10.9,0000.0,0011.95,0004.18,0003.47
2023-10-10 05:28:00,SystemResetWarning,0825.6,5.00,000.00,028.7,027.4,000.0,037.1,030.4,10.9,0000.0,0012.16,0004.22,0003.47
2023-10-10 05:29:00,SystemResetWarning,0825.6,5.01,000.00,028.7,027.4,000.0,037.1,030.4,10.9,0000.0,0011.66,0004.19,0003.47
2023-10-10 05:30:00,SystemResetWarning,0825.6,5.01,000.00,028.7,027.4,000.0,037.1,030.4,10.9,0000.0,0011.54,0004.21,0003.46
2023-10-10 05:31:00,SystemResetWarning,0825.6,4.99,000.00,028.7,027.4,000.0,037.1,030.4,10.9,0000.0,0011.17,0004.21,0003.45
2023-10-10 05:32:00,SystemResetWarning,0825.6,4.99,000.00,028.8,027.4,000.0,037.1,030.4,10.9,0000.0,0010.73,0004.20,0003.45
2023-10-10 05:33:00,SystemResetWarning,0825.6,4.99,000.00,028.8,027.5,000.0,037.2,030.4,10.9,0000.0,0010.94,0004.22,0003.46
2023-10-10 05:34:00,SystemResetWarning,0825.6,5.00,000.00,028.8,027.5,000.0,037.2,030.4,10.9,0000.0,0011.26,0004.22,0003.47
2023-10-10 05:35:00,SystemResetWarning,0825.6,5.01,000.00,028.8,027.5,000.0,037.2,030.4,10.9,0000.0,0011.18,0004.21,0003.47
2023-10-10 05:36:00,SystemResetWarning,0825.6,5.01,000.00,028.8,027.5,000.0,037.2,030.4,10.9,0000.0,0011.07,0004.21,0003.46
2023-10-10 05:37:00,SystemResetWarning,0825.6,5.00,000.00,028.8,027.5,000.0,037.2,030.5,10.9,0000.0,0011.33,0004.21,0003.46
2023-10-10 05:38:00,SystemResetWarning,0825.6,5.00,000.00,028.9,027.5,000.0,037.2,030.5,10.9,0000.0,0010.84,0004.19,0003.45
2023-10-10 05:39:00,SystemResetWarning,0825.5,5.00,000.00,028.9,027.5,000.0,037.2,030.5,10.8,0000.0,0010.44,0004.20,0003.47
2023-10-10 05:40:00,SystemResetWarning,0825.5,5.00,000.00,028.9,027.6,000.0,037.3,030.5,10.9,0000.0,0010.13,0004.23,0003.47
2023-10-10 05:41:00,SystemResetWarning,0825.5,5.00,000.00,028.9,027.6,000.0,037.3,030.5,10.9,0000.0,0010.46,0004.26,0003.47
2023-10-10 05:42:00,SystemResetWarning,0825.4,5.00,000.00,028.9,027.6,000.0,037.3,030.5,10.8,0000.0,0010.73,0004.29,0003.47
2023-10-10 05:43:00,SystemResetWarning,0825.4,5.00,000.00,028.9,027.6,000.0,037.3,030.6,10.7,0000.0,0010.74,0004.32,0003.48
2023-10-10 05:44:00,SystemResetWarning,0825.4,5.01,000.00,028.9,027.6,000.0,037.3,030.6,10.7,0000.0,0011.94,0004.38,0003.48
2023-10-10 05:45:00,SystemResetWarning,0825.4,5.00,000.00,028.9,027.6,000.0,037.3,030.6,10.8,0000.0,0012.17,0004.46,0003.49
2023-10-10 05:46:00,SystemResetWarning,0825.4,5.00,000.00,028.9,027.7,000.0,037.3,030.6,10.9,0000.0,0012.30,0004.51,0003.51
2023-10-10 05:47:00,SystemResetWarning,0825.4,5.00,000.00,029.0,027.7,000.0,037.4,030.6,10.8,0000.0,0012.65,0004.55,0003.54
2023-10-10 05:48:00,SystemResetWarning,0825.4,5.00,000.00,029.0,027.7,000.0,037.4,030.6,10.6,0000.0,0013.24,0004.59,0003.54
2023-10-10 05:49:00,SystemResetWarning,0825.4,5.00,000.00,029.0,027.7,000.0,037.4,030.6,10.6,0000.0,0014.48,0004.63,0003.55
2023-10-10 05:50:00,SystemResetWarning,0825.4,4.99,000.00,029.0,027.6,000.0,037.4,030.6,10.6,0000.0,0014.39,0004.64,0003.54
2023-10-10 05:51:00,SystemResetWarning,0825.3,4.98,000.00,029.0,025.8,000.0,037.3,030.5,10.7,0000.0,0014.72,0004.64,0003.53
2023-10-10 05:52:00,SystemResetWarning,0825.3,5.02,000.00,028.9,024.4,000.0,037.2,030.3,10.7,0000.0,0015.87,0004.64,0003.53
2023-10-10 05:53:00,SystemResetWarning,0825.3,5.00,000.00,028.8,024.3,000.0,037.2,030.1,10.8,0000.0,0015.91,0004.62,0003.54
2023-10-10 05:54:00,SystemResetWarning,0825.3,5.01,000.00,028.6,024.6,000.0,037.2,029.9,10.9,0000.0,0016.55,0004.68,0003.55
2023-10-10 05:55:00,SystemResetWarning,0825.2,5.00,000.00,028.5,025.0,000.0,037.2,030.0,11.0,0000.0,0017.32,0004.66,0003.55
2023-10-10 05:56:00,SystemResetWarning,0825.2,4.99,000.00,028.5,025.4,000.0,037.2,030.0,11.1,0000.0,0016.80,0004.62,0003.53
2023-10-10 05:57:00,SystemResetWarning,0825.3,5.01,000.00,028.5,025.7,000.0,037.1,030.0,11.0,0000.0,0017.81,0004.60,0003.52
2023-10-10 05:58:00,SystemResetWarning,0825.2,4.99,000.00,028.4,026.0,000.0,037.1,030.0,10.9,0000.0,0018.89,0004.55,0003.50
2023-10-10 05:59:00,SystemResetWarning,0825.2,5.00,000.00,028.4,026.2,000.0,037.1,030.1,10.9,0000.0,0018.61,0004.52,0003.50
